Location: Unspecified
(43.4354°N, 0.0000°E)
Time: 06:10:49
(UTC+00:00)

A-11 Canister half - Pass Details

Date: 27 June 2019
Orbit: 1515 x 1685 km, 47.2° (Epoch: 15 July)

Event Time Altitude Azimuth Distance (km) Brightness Sun altitude
Rises 15:47:35 0° 295° (WNW) 4,812 12.3 40.1°
Reaches altitude 10° 15:50:53 10° 290° (WNW) 3,800 12.1 39.5°
Maximum altitude 15:59:48 45° 222° (SW) 2,004 10.7 37.9°
Drops below altitude 10° 16:08:28 10° 153° (SSE) 3,682 10.9 36.3°
Sets 16:11:37 0° 147° (SSE) 4,651 11.3 35.7°
